Date,TemperatureHighF,TemperatureAvgF,TemperatureLowF,DewpointHighF,DewpointAvgF,DewpointLowF,HumidityHigh,HumidityAvg,HumidityLow,PressureMaxIn,PressureMinIn,WindSpeedMaxMPH,WindSpeedAvgMPH,GustSpeedMaxMPH,PrecipitationSumIn
2013-1-1,31.0,24.2,15.1,25.6,13.9,8.4,80,65,50,30.11,29.98,7,2,18,29.35
2013-1-2,25.3,19.3,12.1,15.5,12.0,7.6,83,73,66,30.20,30.06,5,2,13,0.00
2013-1-3,29.4,22.3,12.9,23.3,13.7,3.7,79,69,61,30.17,30.08,9,4,21,0.00
2013-1-4,28.8,25.4,20.8,20.2,16.4,12.2,77,69,59,30.18,30.07,13,8,28,0.00
2013-1-5,33.8,28.2,20.2,29.4,21.5,15.9,87,76,63,30.27,30.03,8,4,17,0.00
2013-1-6,36.5,33.7,30.7,30.6,27.8,24.8,85,79,70,30.23,29.89,9,5,20,0.02
2013-1-7,36.0,31.8,28.2,26.0,23.6,21.3,80,71,62,30.37,30.14,10,4,25,0.00
2013-1-8,39.3,31.3,25.4,27.3,23.7,20.1,85,73,60,30.24,30.14,7,2,16,0.01
2013-1-9,47.6,39.9,29.4,33.3,28.9,22.8,85,65,47,30.43,30.02,13,6,29,0.00
2013-1-10,42.3,33.2,24.4,32.5,27.1,21.1,90,79,59,30.54,30.11,3,0,13,0.02
2013-1-11,59.5,47.0,35.5,52.1,42.7,32.3,94,85,69,30.10,29.73,10,3,25,0.50
2013-1-12,60.4,53.3,48.8,51.8,47.9,43.8,92,82,70,29.90,29.74,8,3,19,0.22
2013-1-13,52.3,41.3,32.7,50.6,39.3,29.8,94,92,89,30.00,29.64,8,3,20,1.56
2013-1-14,31.8,26.0,20.3,28.4,18.1,15.6,87,72,62,30.41,30.01,10,3,22,0.00
2013-1-15,32.4,23.8,15.9,20.4,16.4,12.7,89,74,52,30.41,30.10,3,0,10,0.00
2013-1-16,38.8,30.0,22.2,25.6,20.3,17.3,87,69,42,30.10,29.82,10,4,26,0.00
2013-1-17,42.2,32.7,20.2,28.6,21.5,7.1,85,64,45,30.29,29.95,9,4,22,0.00
2013-1-18,36.6,28.8,20.2,22.8,16.6,7.8,74,60,52,30.42,29.99,12,5,28,0.00
2013-1-19,49.5,43.1,36.3,34.0,28.0,23.1,66,55,46,29.98,29.59,14,10,31,0.00
2013-1-20,44.2,25.9,19.2,33.8,11.4,4.8,67,54,44,30.17,29.58,17,9,38,0.00
2013-1-21,20.3,16.7,9.5,9.0,4.8,-1.4,74,59,45,30.13,29.95,13,7,26,0.00
2013-1-22,12.1,6.8,1.3,4.1,-2.6,-8.1,77,65,57,30.31,30.10,9,4,22,0.00
2013-1-23,18.4,12.7,6.1,11.7,2.4,-4.0,81,63,45,30.29,30.05,8,3,19,0.00
2013-1-24,25.4,16.0,8.8,11.6,4.9,0.0,82,63,37,30.57,30.07,8,3,17,0.01
2013-1-25,22.2,19.3,16.9,17.8,11.5,5.9,85,72,61,30.48,29.99,3,1,8,0.00
2013-1-26,27.9,24.0,18.9,19.5,16.2,12.2,85,73,54,30.41,30.03,7,2,16,0.00
2013-1-27,31.9,24.5,15.7,26.1,16.8,10.9,82,73,59,30.46,30.10,4,1,11,0.01
2013-1-28,49.6,42.8,32.2,47.1,40.4,25.8,93,91,77,30.10,29.83,10,4,21,17.29
2013-1-29,59.2,49.7,36.6,54.1,46.7,34.8,95,90,80,29.96,29.42,10,3,22,0.27
2013-1-30,63.7,52.0,33.7,56.5,47.5,24.6,93,85,69,29.41,29.08,15,7,34,0.58
2013-1-31,33.5,23.6,16.7,24.8,13.5,5.8,82,65,50,29.89,29.26,16,11,37,0.00
2013-2-1,19.1,14.9,11.9,8.6,4.8,1.4,74,64,52,30.29,29.89,13,8,27,0.00
2013-2-2,24.5,18.9,14.0,18.9,12.8,4.8,85,77,64,30.23,29.92,7,4,17,0.00
2013-2-3,22.9,16.3,7.2,14.7,9.3,2.3,82,74,62,30.00,29.86,9,3,20,0.00
2013-2-4,26.0,21.7,18.0,20.4,16.6,11.9,85,80,73,30.01,29.84,6,1,18,0.00
2013-2-5,28.7,24.2,19.9,24.8,18.9,16.1,88,80,64,29.92,29.80,6,2,14,10.79
2013-2-6,37.8,27.0,14.9,25.1,15.2,8.7,85,62,43,30.28,29.92,7,1,18,0.09
2013-2-7,42.3,31.5,25.0,29.5,23.0,15.7,89,71,56,30.23,29.77,7,2,14,0.05
2013-2-8,32.7,28.5,20.2,30.6,23.6,14.4,92,82,69,30.31,29.70,10,3,26,0.14
2013-2-9,35.0,23.9,12.6,20.0,16.1,8.7,86,73,52,30.43,30.26,2,0,8,0.01
2013-2-10,45.5,34.4,20.6,39.9,25.5,17.1,87,71,52,30.25,29.65,7,1,18,0.03
2013-2-11,47.3,39.5,32.9,42.7,30.5,22.8,88,70,60,29.87,29.54,18,10,42,0.00
2013-2-12,36.2,32.6,29.7,24.6,22.7,21.6,72,66,58,30.03,29.88,9,5,25,0.00
2013-2-13,40.5,31.7,26.9,25.4,22.4,19.7,81,69,52,29.89,29.70,4,1,12,0.00
2013-2-14,42.6,36.4,29.3,34.9,29.3,23.6,85,76,59,29.83,29.66,13,6,29,0.00
2013-2-15,35.2,30.5,25.0,24.9,18.5,11.7,75,61,46,30.10,29.83,9,4,21,0.00
2013-2-16,27.5,22.4,17.0,19.1,13.7,7.5,79,69,55,30.08,29.95,9,3,20,0.00
2013-2-17,27.0,19.8,12.4,10.6,7.6,3.6,81,61,38,30.19,30.03,8,2,20,0.00
2013-2-18,49.2,35.3,19.1,34.1,21.0,8.2,65,56,45,30.19,29.57,7,3,19,0.00
2013-2-19,47.3,28.4,17.5,40.0,20.8,8.3,87,73,57,29.95,29.40,15,10,35,0.18
2013-2-20,23.2,20.7,17.8,14.2,10.8,7.7,79,66,54,30.22,29.96,11,6,26,0.00
2013-2-21,25.8,23.4,21.6,16.8,14.5,12.6,74,69,62,30.35,30.22,5,2,14,0.00
2013-2-22,35.2,28.9,22.9,33.4,25.4,16.4,93,87,74,30.22,29.84,6,3,18,0.08
2013-2-23,34.1,30.9,28.2,30.9,21.9,18.0,88,69,58,29.90,29.85,11,5,20,0.05
2013-2-24,37.8,30.3,24.4,25.1,21.5,17.3,81,70,57,30.11,29.88,9,4,22,0.05
2013-2-25,41.9,31.0,20.3,28.7,23.0,17.3,91,74,51,30.19,30.03,4,1,12,0.10
2013-2-26,34.1,32.1,30.0,32.6,27.7,23.4,94,84,73,30.05,29.41,9,4,27,1.06
2013-2-27,36.2,34.2,32.2,34.6,32.6,30.6,94,94,93,29.56,29.38,7,3,14,0.56
2013-2-28,39.2,34.3,31.5,33.8,30.0,26.3,93,84,69,29.90,29.52,9,4,20,0.16
2013-3-1,31.6,29.0,26.6,27.3,21.2,18.3,84,72,65,30.06,29.90,7,4,19,0.00
2013-3-2,30.7,26.8,25.0,21.8,18.6,16.0,79,71,63,30.04,30.00,6,4,17,0.00
2013-3-3,32.8,25.6,20.0,17.1,14.6,11.5,77,64,45,30.03,29.97,6,3,17,0.00
2013-3-4,40.8,27.5,15.9,20.2,16.3,12.1,86,65,38,30.12,30.03,5,1,11,0.00
2013-3-5,31.3,28.5,26.0,24.0,22.1,19.8,84,77,69,30.07,29.74,9,4,28,0.00
2013-3-6,41.2,34.2,27.6,28.7,25.7,22.2,82,71,59,30.17,29.74,9,3,21,0.00
2013-3-7,39.8,35.2,30.3,29.7,25.9,19.4,81,69,56,30.34,30.15,7,2,16,0.00
2013-3-8,47.0,33.7,22.1,26.6,22.4,18.0,86,65,42,30.45,30.34,3,1,12,0.00
2013-3-9,48.6,36.3,25.7,31.6,27.5,22.2,88,71,46,30.37,29.98,4,1,12,0.00
2013-3-10,66.3,52.3,35.2,43.4,36.4,30.8,85,58,34,29.98,29.73,10,2,22,0.01
2013-3-11,56.7,50.3,38.2,48.3,42.6,30.6,88,75,58,29.76,29.42,13,7,33,0.27
2013-3-12,38.2,34.9,31.8,31.5,27.0,23.2,81,73,62,29.90,29.67,10,6,25,0.00
2013-3-13,32.8,30.1,26.7,26.3,19.7,14.3,85,66,52,30.19,29.85,11,7,26,0.00
2013-3-14,43.2,33.0,23.6,22.4,18.2,14.2,72,55,39,30.24,30.07,7,3,18,0.00
2013-3-15,45.1,37.5,31.9,37.1,29.6,19.1,90,74,58,30.06,29.80,8,3,19,0.10
2013-3-16,35.8,32.0,30.0,33.4,28.5,24.0,92,87,75,30.01,29.67,7,3,19,0.04
2013-3-17,33.4,29.2,24.7,23.6,18.7,14.0,74,65,48,30.21,30.02,9,3,25,0.03
2013-3-18,38.5,33.1,28.5,36.7,28.6,19.6,94,84,69,30.12,29.51,12,4,26,0.20
2013-3-19,35.6,29.1,23.6,31.2,16.9,12.2,84,61,46,29.93,29.62,17,10,34,0.00
2013-3-20,30.6,26.4,19.2,17.7,13.1,8.2,73,57,44,29.93,29.87,11,5,25,0.00
2013-3-21,33.1,24.7,16.5,21.4,15.8,10.0,78,69,55,29.93,29.86,9,5,24,0.00
2013-3-22,43.6,33.3,26.6,22.3,18.8,16.0,70,56,38,29.98,29.90,7,4,20,0.00
2013-3-23,42.8,32.5,22.2,25.1,21.7,18.3,85,66,44,30.05,29.98,7,1,14,0.00
2013-3-24,36.0,31.4,25.6,26.7,23.8,21.2,87,74,58,29.98,29.53,10,4,22,0.00
2013-3-25,37.0,33.8,30.4,33.1,27.9,23.3,89,79,67,29.85,29.46,10,5,24,0.18
2013-3-26,44.9,37.7,33.5,31.8,28.2,25.7,78,69,51,30.08,29.85,7,4,17,0.04
2013-3-27,47.0,39.3,31.5,29.5,25.2,21.9,81,59,38,30.17,30.08,10,5,26,0.00
2013-3-28,53.8,42.0,29.8,26.4,23.6,20.7,69,50,32,30.22,30.16,8,3,20,0.00
2013-3-29,55.1,42.7,28.4,25.3,21.3,16.3,73,45,23,30.24,30.14,6,2,18,0.00
2013-3-30,57.5,44.6,28.4,30.4,23.3,17.1,74,46,23,30.18,29.88,7,2,19,0.00
2013-3-31,60.9,49.6,43.3,43.2,33.4,28.2,83,55,31,29.87,29.57,11,3,28,0.00
2013-4-1,46.2,36.3,27.6,31.4,16.2,8.5,74,46,26,30.08,29.65,10,6,24,0.00
2013-4-2,43.6,33.0,24.7,17.9,11.7,8.0,70,44,26,30.21,30.07,10,4,22,0.00
2013-4-3,46.8,34.5,23.5,19.2,12.3,8.5,64,42,21,30.37,30.20,9,2,21,0.00
2013-4-4,58.1,41.4,27.2,17.7,12.6,7.4,57,34,14,30.33,29.90,6,1,17,0.00
2013-4-5,55.3,44.6,36.6,33.0,22.8,13.0,78,45,19,30.15,29.87,7,2,18,0.00
2013-4-6,57.0,45.5,34.7,25.2,18.7,10.3,65,37,23,30.21,29.74,6,2,18,0.00
2013-4-7,62.9,57.6,47.7,44.5,36.9,20.8,63,47,25,29.95,29.59,14,7,33,0.00
2013-4-8,72.0,53.4,41.1,54.8,42.4,33.2,90,67,48,29.98,29.65,13,3,29,0.08
2013-4-9,56.0,48.6,42.6,44.9,41.5,38.6,88,77,63,30.01,29.80,5,1,13,0.01
2013-4-10,49.1,45.3,42.2,45.5,43.0,40.3,94,91,86,29.91,29.77,6,2,20,0.47
2013-4-11,42.3,39.3,37.6,40.4,36.9,34.7,93,91,88,29.92,29.55,10,6,28,1.07
2013-4-12,42.8,40.2,37.8,39.2,35.1,30.8,94,82,65,29.76,29.45,12,6,25,0.31
2013-4-13,43.3,40.6,38.3,35.5,30.8,27.5,83,68,56,29.95,29.76,12,6,31,0.01
2013-4-14,48.6,41.9,35.8,36.8,33.1,26.4,85,71,54,30.06,29.89,5,1,18,0.00
2013-4-15,70.4,56.6,37.5,51.8,45.1,34.7,92,68,48,29.91,29.81,9,3,29,0.00
2013-4-16,63.2,55.8,49.8,51.9,47.4,38.8,92,75,48,30.13,29.80,6,2,18,0.42
2013-4-17,52.8,48.6,44.5,41.9,34.6,30.2,74,59,45,30.25,30.00,7,4,21,0.01
2013-4-18,80.5,61.2,46.0,62.4,53.4,38.9,92,77,49,29.99,29.50,17,5,37,0.42
2013-4-19,61.8,46.1,37.8,57.6,38.8,28.3,93,76,57,29.76,29.28,17,9,34,0.24
2013-4-20,44.8,37.4,31.5,29.1,23.4,18.1,85,58,38,30.40,29.76,12,6,31,0.01
2013-4-21,47.3,37.2,25.3,30.3,25.4,19.5,82,64,49,30.57,30.40,6,2,19,0.00
2013-4-22,60.4,47.5,31.9,37.5,31.4,23.8,89,58,26,30.41,30.13,6,1,17,0.00
2013-4-23,72.7,56.7,40.6,54.6,41.5,31.3,92,61,30,30.11,29.73,10,2,26,0.24
2013-4-24,57.6,43.5,36.5,54.3,38.7,26.4,92,84,61,30.12,29.63,7,4,20,0.62
2013-4-25,52.6,42.7,33.4,39.6,30.8,25.7,82,64,38,30.30,30.09,11,4,33,0.05
2013-4-26,61.3,47.3,29.7,36.7,31.1,26.6,91,58,32,30.41,30.29,4,1,14,0.00
2013-4-27,68.8,53.4,36.6,39.7,35.5,31.7,90,55,27,30.30,30.02,6,1,16,0.00
2013-4-28,58.4,54.0,50.5,56.1,49.4,38.6,93,85,61,30.02,29.76,2,0,8,0.33
2013-4-29,71.5,61.2,54.4,55.5,53.2,51.2,94,77,50,29.87,29.76,4,1,12,0.01
2013-4-30,76.0,65.4,53.3,55.0,53.0,49.8,89,66,44,29.99,29.87,6,1,14,0.00
2013-5-1,84.0,67.9,54.4,59.2,53.7,50.3,87,63,38,30.15,29.98,4,1,13,0.00
2013-5-2,80.3,64.9,51.9,54.0,49.6,43.5,89,61,35,30.17,30.05,5,1,16,0.00
2013-5-3,80.5,66.1,56.0,55.5,49.4,42.4,84,57,33,30.05,29.95,5,1,16,0.00
2013-5-4,68.1,62.3,56.5,49.0,43.5,34.4,71,51,29,30.03,29.97,7,1,19,0.00
2013-5-5,70.3,61.2,53.1,47.4,44.1,39.4,78,55,34,30.02,29.93,5,2,17,0.00
2013-5-6,68.6,60.2,49.2,47.6,45.6,43.4,85,60,43,29.97,29.91,5,1,14,0.00
2013-5-7,72.8,61.6,48.5,54.4,49.3,42.8,85,65,49,29.98,29.91,4,1,18,0.00
2013-5-8,80.1,66.3,54.5,52.5,49.0,44.2,83,56,33,29.94,29.85,3,0,16,0.00
2013-5-9,82.8,70.0,54.1,53.8,50.0,44.2,88,54,27,29.90,29.82,4,0,11,0.00
2013-5-10,73.3,63.6,46.4,59.7,54.9,40.2,92,75,53,29.84,29.65,8,3,21,0.23
2013-5-11,60.2,49.1,40.8,46.0,40.9,31.9,84,74,56,29.88,29.72,8,3,24,0.00
2013-5-12,51.0,43.3,37.6,32.9,28.5,23.9,78,57,38,30.06,29.86,10,4,27,0.00
2013-5-13,58.7,45.5,30.1,29.0,23.1,18.2,81,46,21,30.13,30.05,6,1,19,0.00
2013-5-14,81.2,62.1,44.3,58.3,41.0,27.8,71,48,32,30.06,29.64,8,2,25,0.00
2013-5-15,87.8,76.2,66.1,58.6,51.0,41.4,74,45,20,29.70,29.54,10,4,27,0.00
2013-5-16,86.5,71.4,53.6,51.7,43.3,37.5,69,41,20,29.90,29.69,4,1,17,0.00
2013-5-17,69.4,61.0,52.6,48.2,43.5,36.9,73,53,38,30.06,29.91,5,2,17,0.00
2013-5-18,73.7,63.2,55.6,51.5,48.5,44.9,78,60,42,30.07,29.96,4,1,16,0.00
2013-5-19,84.9,71.2,56.0,64.6,58.0,48.8,86,65,45,29.96,29.82,2,0,13,0.00
2013-5-20,92.5,78.7,65.2,68.5,63.0,59.6,88,62,35,29.85,29.71,9,2,26,0.00
2013-5-21,87.6,79.7,72.5,65.1,60.2,54.6,77,54,34,29.75,29.63,10,3,26,0.00
2013-5-22,82.4,72.4,64.3,64.3,60.8,55.9,89,68,42,29.69,29.57,9,2,27,0.05
2013-5-23,68.9,58.2,44.6,60.7,52.9,39.7,90,83,64,30.08,29.64,7,3,22,0.10
2013-5-24,60.7,49.8,41.2,40.4,36.5,32.5,90,63,37,30.29,30.08,6,2,19,0.00
2013-5-25,68.4,53.9,37.8,43.0,36.6,29.9,91,58,24,30.34,30.20,3,0,12,0.00
2013-5-26,70.4,57.9,39.3,39.7,33.5,26.9,87,46,20,30.29,30.15,3,0,10,0.00
2013-5-27,57.6,54.1,51.6,52.8,44.2,33.5,93,72,42,30.19,29.92,2,0,12,0.65
2013-5-28,79.8,67.3,54.8,71.1,61.4,52.8,95,83,63,29.92,29.76,10,2,25,0.93
2013-5-29,87.0,78.0,71.1,65.9,62.0,59.9,70,59,44,29.92,29.76,10,4,26,0.00
2013-5-30,90.5,76.9,69.3,70.7,64.5,59.3,92,68,40,29.99,29.88,7,1,22,0.24
2013-5-31,82.8,73.8,67.8,67.9,65.4,62.9,93,76,54,29.92,29.80,11,3,25,0.01
2013-6-1,80.1,71.3,63.7,66.0,63.1,60.5,93,77,54,29.84,29.63,8,2,22,0.44
2013-6-2,72.8,66.7,57.3,65.7,57.6,46.4,91,73,54,29.91,29.61,8,4,24,0.25
2013-6-3,71.3,60.5,48.0,46.5,39.5,31.9,73,49,27,30.02,29.90,4,1,12,0.00
2013-6-4,72.1,61.1,48.8,49.9,45.7,43.3,83,59,40,30.13,30.02,4,1,12,0.00
2013-6-5,72.3,62.9,52.0,51.9,46.8,41.7,77,57,34,30.09,29.90,4,1,13,0.00
2013-6-6,70.4,62.9,56.6,54.9,49.4,43.0,74,62,55,29.90,29.77,4,2,16,0.00
2013-6-7,63.1,57.8,52.9,52.2,50.3,48.4,87,76,66,29.84,29.78,2,0,11,0.00
2013-6-8,75.3,65.1,57.2,55.7,53.0,50.9,83,66,43,29.99,29.83,2,0,11,0.00
2013-6-9,74.7,67.1,59.2,62.7,57.6,51.8,89,72,61,30.02,29.85,4,1,18,0.13
2013-6-10,73.5,67.4,64.8,67.5,64.5,61.9,94,91,78,29.86,29.65,5,0,16,0.54
2013-6-11,84.5,73.7,65.0,64.6,63.2,61.9,93,72,48,29.82,29.69,5,1,16,0.00
2013-6-12,84.3,73.0,65.0,68.2,64.2,61.9,91,75,52,29.83,29.55,3,0,14,0.01
2013-6-13,81.2,70.8,60.9,65.2,58.7,51.8,94,70,38,29.83,29.43,8,2,22,1.13
2013-6-14,80.3,70.3,60.2,59.1,55.5,50.0,85,62,38,29.99,29.83,4,1,14,0.00
2013-6-15,81.2,69.0,57.5,62.6,57.4,52.6,85,68,38,30.03,29.86,7,1,18,0.00
2013-6-16,84.3,74.2,66.3,65.9,62.7,58.8,91,69,45,29.85,29.75,7,3,19,0.35
2013-6-17,87.6,75.9,60.7,68.3,60.2,53.6,90,62,33,29.84,29.76,4,1,16,0.00
2013-6-18,75.1,68.2,61.6,62.0,57.0,46.7,86,68,51,29.98,29.79,5,2,17,0.00
2013-6-19,76.1,64.7,50.2,54.8,47.3,41.6,75,55,34,30.09,29.98,4,1,12,0.00
2013-6-20,85.3,70.0,52.6,58.5,51.8,46.2,86,56,26,30.14,30.07,3,0,14,0.00
2013-6-21,88.8,77.0,64.8,61.5,56.2,51.1,77,51,28,30.14,29.98,4,1,16,0.00
2013-6-22,92.1,77.9,70.3,71.7,65.7,55.9,91,68,46,30.02,29.89,7,2,24,0.48
2013-6-23,91.4,78.9,68.6,69.2,66.8,62.8,91,70,40,30.02,29.89,9,2,28,0.42
2013-6-24,88.2,77.5,67.6,69.4,66.8,64.5,91,72,51,30.01,29.86,6,2,16,0.05
2013-6-25,90.3,77.9,68.8,72.8,67.9,63.6,91,73,49,29.93,29.72,9,2,25,0.45
2013-6-26,86.3,73.7,66.4,70.8,67.2,64.3,94,82,53,29.85,29.65,6,1,20,0.72
2013-6-27,84.5,74.2,67.4,70.6,68.6,65.0,94,84,58,29.68,29.57,4,0,13,0.26
2013-6-28,82.4,69.3,62.9,67.2,63.4,58.1,94,83,50,29.56,29.45,8,1,18,0.19
2013-6-29,78.1,67.7,60.5,64.9,61.9,58.0,94,83,59,29.64,29.47,4,0,10,0.10
2013-6-30,77.6,68.6,63.4,63.9,59.9,57.5,91,75,55,29.84,29.64,5,1,15,0.11
2013-7-1,68.9,63.2,61.0,59.9,56.3,50.1,92,79,64,29.96,29.83,6,2,19,0.73
2013-7-2,72.3,65.5,61.2,64.4,60.9,57.2,91,85,74,29.98,29.92,3,1,14,0.02
2013-7-3,84.1,73.6,65.6,67.1,64.7,62.9,93,76,50,30.02,29.94,3,0,14,0.00
2013-7-4,83.6,75.3,70.3,68.0,66.2,63.9,88,74,54,30.06,29.99,2,0,11,0.00
2013-7-5,84.7,75.9,69.4,69.5,67.4,64.9,92,76,53,30.04,29.97,2,0,8,0.08
2013-7-6,81.4,73.9,69.9,72.3,68.3,66.2,94,83,65,30.04,29.92,2,0,8,1.25
2013-7-7,79.6,71.8,67.3,70.3,66.7,64.4,94,85,64,29.98,29.91,4,1,13,0.19
2013-7-8,84.7,72.8,66.9,75.3,68.3,64.0,93,86,67,29.97,29.91,3,1,12,0.65
2013-7-9,89.9,75.5,70.8,74.8,70.8,67.0,94,86,59,29.92,29.82,7,1,21,0.14
2013-7-10,88.2,77.2,68.3,76.4,70.0,61.0,92,79,53,29.85,29.69,9,2,19,0.10
2013-7-11,83.0,72.4,63.9,61.4,56.8,52.8,79,60,38,29.97,29.85,6,1,13,0.00
2013-7-12,81.8,70.5,58.3,64.2,58.9,54.8,89,69,44,30.07,29.98,3,1,14,0.00
2013-7-13,82.6,73.8,63.9,67.6,63.7,58.9,91,72,53,30.12,30.04,5,1,14,0.00
2013-7-14,88.8,78.8,67.9,72.5,68.6,65.5,93,73,53,30.16,30.11,4,1,13,0.00
2013-7-15,93.2,83.4,74.0,75.2,71.7,68.7,88,69,48,30.21,30.13,3,0,12,0.00
2013-7-16,92.1,84.7,79.0,75.2,73.1,71.1,85,69,51,30.23,30.15,2,0,11,0.00
2013-7-17,94.0,84.8,76.1,78.0,72.5,69.3,81,68,50,30.21,30.07,3,1,11,0.02
2013-7-18,94.9,85.4,75.4,74.9,72.7,70.8,87,67,48,30.08,29.88,5,1,14,0.00
2013-7-19,93.8,85.8,77.7,73.8,71.6,69.1,81,64,46,29.90,29.67,10,4,27,0.00
2013-7-20,88.4,78.6,70.3,72.9,68.8,62.1,94,74,43,29.83,29.66,9,1,27,27.48
2013-7-21,85.5,76.2,67.3,65.7,63.3,60.6,86,66,47,29.91,29.82,2,0,12,24.61
2013-7-22,82.4,73.9,69.4,70.4,65.9,60.2,88,76,60,29.87,29.69,3,0,8,16.64
2013-7-23,86.5,73.6,65.0,69.3,65.1,53.8,92,77,48,29.77,29.60,9,2,20,0.01
2013-7-24,74.9,65.3,53.9,54.4,51.6,48.3,86,63,44,29.97,29.78,6,1,18,0.00
2013-7-25,79.0,66.6,53.2,57.3,52.6,48.8,85,63,42,30.04,29.97,2,0,8,0.00
2013-7-26,79.9,69.3,55.7,59.6,56.0,53.0,92,65,43,30.03,29.83,2,0,16,0.00
2013-7-27,75.8,67.7,59.6,67.1,60.9,52.0,91,79,64,29.83,29.66,5,1,16,0.48
2013-7-28,68.1,60.5,52.5,54.0,50.5,48.6,90,71,54,29.94,29.79,9,2,26,0.00
2013-7-29,75.1,63.5,55.0,57.2,53.4,49.3,84,71,50,30.11,29.94,5,1,18,0.00
2013-7-30,81.6,67.6,52.2,62.8,56.7,49.9,93,71,43,30.16,30.05,2,0,11,0.00
2013-7-31,78.8,71.6,66.9,66.4,63.0,59.8,92,75,60,30.05,29.82,4,0,13,0.37
2013-8-1,81.2,70.7,63.2,66.2,61.6,55.1,94,75,44,29.86,29.80,4,0,14,0.04
2013-8-2,73.2,65.8,56.0,66.6,58.4,52.4,89,77,61,29.89,29.78,7,1,18,0.06
2013-8-3,82.6,72.3,62.3,63.6,57.5,50.1,93,64,35,29.95,29.84,4,1,20,0.00
2013-8-4,76.7,67.0,56.5,55.7,53.6,51.2,85,64,42,30.09,29.95,5,1,14,0.00
2013-8-5,75.6,66.4,55.7,57.5,54.4,51.2,88,67,45,30.05,29.89,1,0,8,0.00
2013-8-6,81.6,72.3,65.6,64.3,61.2,57.2,82,69,52,29.90,29.82,4,0,16,0.00
2013-8-7,84.3,74.3,67.8,71.4,67.3,63.4,91,80,59,29.84,29.76,3,0,13,28.08
2013-8-8,76.1,72.6,68.6,70.4,65.7,62.5,89,79,69,29.92,29.81,4,1,12,0.00
2013-8-9,83.0,73.1,64.2,62.4,57.1,51.9,76,59,38,29.94,29.86,3,1,12,0.00
2013-8-10,78.1,71.2,65.3,63.8,61.2,59.6,82,71,57,30.04,29.93,3,0,11,0.00
2013-8-11,84.5,70.7,57.3,61.5,57.5,53.5,93,67,36,30.06,29.96,3,0,10,0.00
2013-8-12,81.4,71.1,67.1,70.3,63.7,58.8,91,78,61,29.99,29.76,3,0,8,0.41
2013-8-13,71.5,64.6,58.1,64.6,54.5,46.7,94,73,45,29.98,29.75,7,2,21,0.01
2013-8-14,74.9,61.1,49.8,50.7,47.5,44.3,84,63,40,30.10,29.99,5,1,13,0.00
2013-8-15,78.1,63.0,48.3,54.3,49.8,46.1,93,67,35,30.12,30.03,3,0,10,0.00
2013-8-16,81.8,67.3,53.8,55.1,51.5,46.8,89,61,31,30.12,30.06,2,0,10,0.00
2013-8-17,79.8,67.2,52.8,61.6,54.8,50.0,92,68,39,30.18,30.11,3,1,13,0.00
2013-8-18,83.2,70.9,58.7,64.2,57.3,51.2,94,67,34,30.14,30.04,3,0,11,0.00
2013-8-19,85.1,71.9,58.1,61.3,58.1,55.1,92,65,38,30.06,29.96,3,0,12,0.00
2013-8-20,88.0,75.1,61.0,64.9,61.6,58.0,91,66,40,30.08,29.99,3,0,12,0.00
2013-8-21,87.8,77.3,66.4,68.3,64.7,61.1,83,67,45,30.07,29.92,3,1,14,0.00
2013-8-22,84.5,74.8,68.6,68.4,66.5,63.4,92,76,56,29.97,29.89,3,1,14,0.18
2013-8-23,84.5,73.0,62.3,66.3,58.7,50.9,93,66,34,30.11,29.97,4,1,11,0.02
2013-8-24,83.4,71.0,57.8,64.0,56.6,49.4,93,65,34,30.23,30.11,4,0,13,0.00
2013-8-25,88.4,74.0,56.9,62.2,58.8,53.7,91,62,37,30.23,30.09,5,1,17,0.00
2013-8-26,89.5,78.5,67.8,70.0,64.2,59.5,80,62,49,30.11,29.90,6,2,18,0.02
2013-8-27,86.5,78.7,72.5,75.4,71.1,67.5,92,78,65,29.93,29.78,6,1,16,0.53
2013-8-28,85.9,78.1,72.7,73.9,71.4,69.2,91,80,64,29.91,29.71,8,1,22,0.48
2013-8-29,88.0,75.8,67.3,69.8,66.4,62.4,93,75,46,29.99,29.91,3,0,10,0.01
2013-8-30,88.4,76.9,64.7,70.4,66.1,62.4,94,72,47,29.92,29.67,7,1,18,0.00
2013-8-31,85.5,75.3,67.3,72.0,68.6,65.2,94,81,56,29.75,29.63,7,0,21,2.37
2013-9-1,82.6,76.1,71.5,70.3,69.0,67.5,91,79,64,29.74,29.65,3,0,11,1.14
2013-9-2,80.9,72.7,61.8,68.4,62.7,51.9,93,73,45,29.84,29.65,5,2,20,0.03
2013-9-3,76.7,65.4,59.2,55.7,52.7,49.4,84,65,46,29.96,29.84,5,1,18,0.00
2013-9-4,84.5,68.5,54.4,58.4,55.4,52.1,93,67,34,30.04,29.94,6,1,17,0.00
2013-9-5,75.3,66.4,58.9,58.7,51.7,38.7,89,63,30,30.18,30.00,4,1,13,0.00
2013-9-6,79.0,63.5,48.8,56.2,50.3,43.8,93,66,30,30.21,30.01,3,0,8,0.00
2013-9-7,83.8,69.3,57.0,68.0,57.8,46.7,82,67,49,30.01,29.83,4,1,14,0.00
2013-9-8,75.8,70.3,63.2,65.6,61.8,56.8,86,75,54,29.98,29.84,6,1,16,0.00
2013-9-9,84.9,67.8,57.5,71.7,61.8,50.0,92,82,63,29.99,29.83,1,0,8,0.02
2013-9-10,97.5,84.7,74.6,72.2,67.8,61.4,86,60,31,29.94,29.83,5,2,14,0.00
2013-9-11,95.6,81.4,71.8,70.7,67.5,63.1,85,65,35,29.98,29.82,5,2,21,0.02
2013-9-12,82.8,71.6,60.5,68.7,61.8,48.7,93,74,39,29.88,29.75,8,1,17,0.17
2013-9-13,64.8,56.3,45.8,49.1,44.8,40.3,81,66,47,30.08,29.88,5,2,17,0.00
2013-9-14,70.9,54.5,39.8,48.7,41.3,37.1,92,66,30,30.14,30.04,3,0,9,0.00
2013-9-15,68.9,57.3,48.0,54.8,49.3,44.0,92,76,47,30.08,29.96,3,0,12,0.11
2013-9-16,66.8,58.3,52.3,54.9,50.6,45.3,95,77,50,30.29,30.04,5,1,13,0.01
2013-9-17,68.1,55.3,42.2,51.1,45.7,39.5,92,72,45,30.33,30.15,3,0,14,0.00
2013-9-18,78.8,61.4,50.5,59.8,53.7,47.9,92,78,47,30.15,29.97,1,0,7,0.00
2013-9-19,82.8,70.3,60.9,67.1,63.2,57.7,93,79,57,29.98,29.85,3,0,12,0.00
2013-9-20,85.1,73.9,68.9,69.3,67.0,64.5,93,80,55,29.86,29.65,7,2,19,0.25
2013-9-21,71.5,64.3,56.2,66.7,55.4,45.3,94,75,43,29.80,29.61,5,1,18,0.49
2013-9-22,64.7,56.0,49.9,47.2,43.0,39.2,87,63,45,30.01,29.80,4,1,14,0.00
2013-9-23,64.5,53.8,45.2,47.3,44.6,41.5,88,73,49,30.12,30.01,2,0,11,0.00
2013-9-24,66.6,52.8,40.3,50.3,44.8,38.4,95,76,49,30.09,29.93,3,0,14,0.00
2013-9-25,72.3,57.8,46.7,57.4,51.4,44.5,94,81,55,29.93,29.86,5,1,12,0.00
2013-9-26,76.0,59.4,47.6,56.6,49.7,42.6,95,74,34,30.06,29.91,3,0,10,0.87
2013-9-27,74.7,60.3,49.1,59.9,53.1,46.9,95,79,53,30.16,30.06,4,1,16,0.00
2013-9-28,78.8,62.9,49.2,60.9,54.2,47.3,95,76,43,30.13,29.95,3,0,12,0.00
2013-9-29,64.3,62.3,60.1,61.3,57.0,52.0,94,83,68,29.96,29.89,1,0,7,0.19
2013-9-30,72.8,62.1,56.0,58.4,56.1,53.0,95,82,56,29.96,29.86,3,0,13,0.00
2013-10-1,75.8,63.5,54.1,62.3,57.9,51.8,95,83,62,29.97,29.88,7,1,17,0.01
2013-10-2,84.9,69.9,62.6,62.3,58.1,52.4,90,70,35,30.00,29.90,2,0,7,0.00
2013-10-3,79.2,68.6,60.1,68.9,62.7,56.0,90,82,66,29.98,29.86,4,0,18,0.22
2013-10-4,76.7,70.4,67.8,69.2,65.5,63.7,89,85,76,29.96,29.89,3,0,12,0.03
2013-10-5,73.9,68.9,65.2,69.3,66.0,62.4,94,91,82,29.96,29.80,6,0,17,0.10
2013-10-6,73.0,65.8,55.3,67.3,62.6,52.1,93,89,74,29.79,29.57,7,1,18,0.48
2013-10-7,60.7,52.7,44.8,53.1,44.3,40.2,91,74,55,30.07,29.65,9,3,26,0.01
2013-10-8,70.6,53.0,39.6,50.4,44.1,37.7,95,75,38,30.24,30.08,2,0,11,0.00
2013-10-9,69.6,54.4,42.2,51.1,45.6,40.3,95,76,37,30.25,30.15,4,1,14,0.00
2013-10-10,71.5,53.9,40.8,50.8,44.7,39.0,95,75,35,30.17,30.06,3,0,10,0.00
2013-10-11,72.0,56.3,44.3,58.5,50.4,42.4,95,83,42,30.09,30.00,2,0,11,0.00
2013-10-12,77.4,61.7,49.6,59.7,53.8,47.9,95,78,37,30.04,29.97,2,0,8,0.01
2013-10-13,73.7,62.0,51.4,58.1,47.2,36.7,89,63,26,30.27,30.01,5,1,13,0.00
2013-10-14,66.0,52.6,43.2,50.2,44.0,39.9,92,74,45,30.34,30.20,3,0,11,0.00
2013-10-15,63.1,53.2,41.5,60.6,50.0,39.4,94,89,82,30.20,29.79,3,0,11,0.10
2013-10-16,63.2,59.0,51.3,60.8,50.8,43.7,94,76,51,29.86,29.76,7,3,20,0.00
2013-10-17,51.6,48.3,42.9,48.2,44.7,40.5,92,87,79,29.86,29.74,6,1,17,0.08
2013-10-18,64.3,51.8,40.8,46.0,42.2,38.5,92,72,43,29.88,29.79,7,2,22,0.01
2013-10-19,48.3,44.0,40.5,42.6,39.8,36.4,92,85,73,29.87,29.73,6,1,18,0.18
2013-10-20,62.6,50.2,40.9,43.0,38.5,35.4,82,66,39,29.88,29.81,6,2,18,0.00
2013-10-21,58.7,52.1,41.9,48.5,43.2,34.9,91,72,61,29.84,29.76,6,2,20,0.03
2013-10-22,51.3,41.5,32.9,34.9,30.6,27.0,81,66,46,29.91,29.82,8,2,21,0.00
2013-10-23,48.2,39.1,32.1,35.2,32.3,27.8,92,78,46,29.91,29.76,4,1,13,0.02
2013-10-24,47.9,38.5,32.7,33.9,30.9,27.5,89,75,51,30.15,29.90,5,2,17,0.00
2013-10-25,48.6,38.8,30.7,34.8,29.6,26.5,92,72,46,30.30,30.11,6,2,17,0.00
2013-10-26,50.7,43.6,38.9,37.8,30.3,25.9,75,59,53,30.11,29.77,9,4,24,0.00
2013-10-27,54.7,42.0,32.2,34.9,31.9,29.0,89,70,42,30.03,29.95,5,1,17,0.00
2013-10-28,55.7,42.0,30.9,42.0,34.5,28.1,92,76,58,30.32,30.00,4,1,13,0.00
2013-10-29,53.3,41.9,31.9,41.6,36.0,29.1,92,80,63,30.38,30.18,2,0,11,0.00
2013-10-30,65.6,48.5,34.4,54.1,42.4,32.3,95,81,52,30.18,29.89,2,0,10,0.00
2013-10-31,62.7,60.6,58.4,60.6,58.3,55.0,94,92,86,29.88,29.12,7,2,24,0.00
2013-11-1,59.9,50.7,47.0,57.9,43.9,39.0,93,78,69,29.62,29.12,14,5,29,0.00
2013-11-2,51.4,46.3,41.5,45.1,41.6,36.1,93,84,64,30.03,29.61,4,2,17,0.00
2013-11-3,48.5,39.2,30.0,35.1,32.8,27.4,92,79,57,30.38,30.03,3,0,11,0.00
2013-11-4,51.6,41.5,31.6,36.6,28.7,23.2,85,63,35,30.42,30.26,1,0,10,0.00
2013-11-5,56.3,49.8,41.3,48.3,42.6,34.6,85,77,68,30.32,30.13,4,0,11,0.00
2013-11-6,59.2,54.2,44.9,53.4,46.0,39.3,90,74,59,30.14,29.78,10,4,29,0.00
2013-11-7,46.7,42.4,37.2,41.0,31.7,26.5,86,67,48,30.11,29.92,7,3,26,0.00
2013-11-8,46.1,38.5,34.1,31.9,28.5,25.0,86,68,46,30.26,30.08,5,1,18,0.00
2013-11-9,58.0,49.2,36.9,40.1,34.9,29.6,75,58,49,30.16,29.78,10,4,29,0.00
2013-11-10,51.0,44.8,38.0,38.8,30.1,24.8,71,57,46,30.24,29.86,9,4,26,0.00
2013-11-11,47.7,39.1,29.0,38.9,31.7,22.5,90,76,57,30.26,29.98,8,3,19,0.00
2013-11-12,36.2,29.0,23.3,24.0,19.5,16.5,81,68,52,30.52,30.25,9,4,21,0.01
2013-11-13,38.8,29.8,21.0,21.5,18.5,13.6,85,64,37,30.52,30.18,9,4,24,0.00
2013-11-14,52.5,39.6,31.9,24.7,21.7,18.4,63,50,28,30.19,29.98,12,6,26,0.00
2013-11-15,51.0,43.8,38.5,30.8,26.6,22.9,67,51,41,30.04,29.97,7,3,19,0.00
2013-11-16,59.2,48.4,36.0,51.2,42.2,30.4,88,79,64,30.05,29.76,7,2,18,0.00
2013-11-17,67.1,59.8,49.6,59.0,53.6,40.0,90,80,63,29.76,29.24,18,7,45,0.00
2013-11-18,49.8,42.4,35.9,41.5,31.9,23.7,77,66,57,30.09,29.46,13,8,32,0.00
2013-11-19,46.1,36.7,29.4,24.5,23.2,21.4,77,59,39,30.36,30.08,5,2,16,0.00
2013-11-20,46.8,36.1,26.1,27.9,24.6,21.6,85,64,43,30.39,30.18,4,1,13,0.00
2013-11-21,45.8,43.6,39.9,43.6,38.2,26.7,94,82,59,30.24,30.12,5,1,14,0.00
2013-11-22,48.2,42.6,28.8,46.8,39.3,24.3,95,88,68,30.32,30.07,9,2,22,0.00
2013-11-23,32.4,26.9,18.9,25.2,16.7,6.0,87,67,42,30.50,30.25,12,5,26,0.00
2013-11-24,27.0,20.6,14.1,13.8,9.1,5.7,74,62,41,30.59,30.43,7,3,20,0.00
2013-11-25,32.4,26.1,19.9,20.0,14.5,11.7,74,62,47,30.43,30.08,10,6,26,0.00
2013-11-26,35.3,32.4,30.1,27.1,24.1,19.2,78,71,59,30.10,29.88,7,2,18,0.00
2013-11-27,31.6,26.7,20.2,25.1,14.6,9.5,77,60,47,30.17,29.86,11,5,22,0.00
2013-11-28,29.0,25.5,19.9,19.2,13.7,9.8,77,61,51,30.38,30.16,7,1,17,0.00
2013-11-29,38.5,29.8,23.0,21.0,18.1,15.0,76,62,43,30.61,30.36,2,0,11,0.00
2013-11-30,48.2,35.8,27.8,27.8,23.4,18.8,74,61,44,30.53,30.06,7,2,16,0.00
2013-12-1,49.4,38.7,31.2,34.3,29.0,24.9,80,68,55,30.07,29.92,5,1,12,0.00
2013-12-2,41.1,34.5,28.8,31.8,26.7,23.4,91,74,50,29.93,29.83,3,0,11,0.00
2013-12-3,42.2,37.6,29.8,37.0,33.1,25.8,90,84,77,29.86,29.77,2,0,10,0.00
2013-12-4,59.5,48.7,38.2,52.2,44.1,35.8,92,84,76,29.83,29.58,6,1,19,0.00
2013-12-5,60.9,45.4,31.9,54.1,36.8,21.9,83,72,62,30.11,29.57,10,6,27,0.00
2013-12-6,32.2,29.5,24.4,22.4,18.8,14.5,68,64,59,30.36,30.08,5,2,14,0.00
2013-12-7,30.7,22.7,16.1,15.1,10.8,8.2,71,60,42,30.58,30.35,6,2,17,0.00
2013-12-8,29.8,22.3,15.9,26.0,15.9,8.0,89,76,67,30.57,29.95,5,2,18,0.00
2013-12-9,30.3,27.0,20.6,28.3,21.0,10.4,92,78,66,30.11,29.86,11,5,27,0.00
2013-12-10,25.7,19.7,12.3,11.2,7.8,-0.7,71,60,42,30.20,29.95,13,6,30,0.00
2013-12-11,25.3,19.2,12.3,18.3,11.0,4.7,82,70,61,30.44,30.19,8,4,18,0.00
2013-12-12,18.1,13.4,7.4,7.4,3.2,-3.2,82,64,46,30.45,30.21,8,3,18,0.00
2013-12-13,35.0,23.7,16.9,22.7,13.3,6.5,81,64,55,30.23,30.14,6,2,16,0.00
2013-12-14,27.9,23.5,21.0,22.2,20.3,17.7,90,88,79,30.19,29.76,6,4,18,0.00
2013-12-15,24.7,20.2,14.8,20.6,14.9,8.1,87,80,73,30.03,29.77,10,5,27,0.00
2013-12-16,25.7,15.7,7.0,15.9,8.5,2.3,86,73,57,30.16,29.96,5,1,14,0.00
2013-12-17,25.1,22.1,16.9,20.6,17.9,13.2,87,84,78,29.99,29.88,8,4,19,0.00
2013-12-18,29.4,23.8,19.2,21.3,16.7,14.0,90,74,60,30.12,29.88,9,4,21,0.00
2013-12-19,43.5,36.5,27.8,34.1,28.2,16.5,87,72,60,29.94,29.83,6,2,16,0.00
2013-12-20,53.8,45.0,36.9,52.4,42.7,33.4,95,92,80,29.84,29.65,5,2,14,0.00
2013-12-21,54.8,39.7,33.5,53.4,37.9,32.0,95,93,90,29.78,29.56,7,2,20,0.00
2013-12-22,41.5,37.0,33.4,39.0,34.1,31.1,96,89,80,29.93,29.48,13,5,32,0.00
2013-12-23,36.0,31.0,21.9,31.3,23.7,11.6,86,74,63,30.29,29.91,9,5,20,0.00
2013-12-24,24.7,17.4,11.4,14.7,8.1,4.3,78,67,49,30.52,30.28,7,4,20,0.00
2013-12-25,26.1,20.7,14.0,21.8,14.5,9.2,84,77,64,30.49,30.10,5,2,14,0.00
2013-12-26,28.8,27.1,26.0,25.1,20.1,15.6,89,75,64,30.27,30.02,9,4,21,0.00
2013-12-27,42.2,35.7,28.2,31.3,27.2,20.7,78,71,63,30.28,30.07,7,3,16,0.00
2013-12-28,50.8,42.6,37.2,35.7,32.1,29.8,75,66,55,30.09,29.87,9,6,25,0.00
2013-12-29,45.5,38.2,27.5,32.5,28.7,20.1,86,69,60,29.93,29.64,9,4,24,0.00
2013-12-30,27.5,22.5,18.1,20.9,11.5,5.8,76,63,50,30.23,29.93,8,2,21,0.00
2013-12-31,22.1,18.1,15.1,14.4,10.0,7.2,83,71,60,30.31,30.06,11,5,25,0.00
2014-1-1,17.7,16.5,14.8,14.0,12.2,10.3,85,83,78,30.32,30.14,6,3,17,0.00
2014-1-2,17.2,13.3,5.2,13.5,9.0,-1.9,86,82,72,30.24,30.00,10,7,26,0.00